COSMOS 841

Satellite information

Favourite Embed

Satellite Type and Status

PAYLOADIN ORBIT

Key statistics

Satellite COSMOS 841 at a glance.

Uptime

17995

Days in orbit

Revolutions

≈ 14.4

Per day

Orbit

LEO

Low Earth Orbit

Inclination

74.0

Latest

Satellite identification and parameters

Extended collection of information and parameters for COSMOS 841.

Object identification

Identified? True

Debris? False

Object name: COSMOS 841

International designator: 1976-069A

Object number (NORAD): 9022

Object ID (CCSDS): 9022

Country: COMMONWEALTH OF INDEPENDENT STATES (CIS)

Current information (Y/N): Y

RCS size: LARGE

Orbital parameters

Period: 100.228 minutes

Inclination: 74.0458 deg

SMA: 7147.491 km

Apoapsis: 778.258 km

Periapsis: 760.455 km

RAAN: 21.1116 deg

Eccentricy: 0.00124539

Argument of periapsis: 167.809 deg

Mean anomaly: 192.3367 deg

Mean motion: 14.36720619 rev/day

Mean motion (dot): 0.0000033 rev/day2

B* drag term: 0.000120665 1/REarth

Two-line elements (TLE)

Creation date: Oct. 20, 2025, 6:08 p.m.

Reference frame: TEME

Reference center: EARTH

Epoch: Oct. 20, 2025, 3:41 p.m. UTC

TLE line 0: 0 COSMOS 841

TLE line 1: 1 09022U 76069A 25293.65385800 .00000330 00000-0 12066-3 0 9991

TLE line 2: 2 09022 74.0458 21.1116 0012454 167.8090 192.3367 14.36720619577977

Live tracking on map

Real-time ground track for satellite COSMOS 841.

In-orbit conjunctions

A list of the most updated potential collisions computed for object COSMOS 841.

Target Orbit TCA Probability of collision Miss distance Type
NOAA 16 DEB SSO 2025-08-08 16:41:55 0.0001834056 709.0 (m) DEBRIS
CZ-4 DEB SSO 2025-07-15 07:39:14 0.0001525203 788.0 (m) DEBRIS
NOAA 16 DEB SSO 2025-02-22 04:36:34 0.0002516436 196.0 (m) DEBRIS
METEOR 2-5 DEB LEO 2024-11-23 12:29:10 0.0002222729 95.0 (m) DEBRIS
CZ-6A DEB LEO 2024-11-06 02:31:42 0.0001245998 622.0 (m) DEBRIS

Associated space launch

Military communications satellite

COSMOS 841 was lifted into orbit during the mission ‘Kosmos-3M | Strela-2M 13’, on board a Kosmos-3M space rocket.

The launch took place on July 15, 1976, 1:11 p.m. from 132/1 (132L).

For more information about the launch, click the button.

Launch to space Kosmos-3M | Strela-2M 13
Kosmos-3M | Strela-2M 13

Agency: N/A

Status: Launch Successful

Launch date: July 15, 1976, 1:11 p.m. UTC

Rocket: Kosmos-3M

Launch pad: 132/1 (132L)

Location: Plesetsk Cosmodrome, Russian Federation

...

Latest news about this satellite

There are no fresh news available about this satellite. Check back as we update our databases every day.


Newsletter sign-up

Weekly statistics, charts and insights to help you stay on top of the space industry.